Location: Alfords
(31.4624°N, 83.9238°W)
Time: 01:02:25
(UTC+00:00)

Tiangong - Pass Details

Date: 07 October 2021
Orbit: 382 x 385 km, 41.5° (Epoch: 17 October)

Event Time Altitude Azimuth Distance (km) Brightness Sun altitude
Exits shadow 10:26:36 24° 316° (NW) 829 2.4 -15.1°
Maximum altitude 10:28:14 56° 27° (NNE) 456 1.5 -14.7°
Drops below altitude 10° 10:31:19 10° 107° (ESE) 1,390 5.1 -14.1°
Sets 10:33:24 0° 112° (ESE) 2,239 6.3 -13.6°
